This is the latest recevied weather packets stored in our database for station/object VE3DVC. If no packets are shown the sender has not sent any weather packets the latest 10 day(s).
| Time | Temp. | Humidity | Pressure | Rain* | Wind** | Luminosity | Snow |
|---|---|---|---|---|---|---|---|
| 1778168698 | 11.11° C | 67% | 1011.6 hPa | 0 mm | - | - | - |
| 1778167977 | 10.56° C | 70% | 1011.7 hPa | 0 mm | - | - | - |
| 1778166947 | 10.56° C | 72% | 1011.8 hPa | 0 mm | - | - | - |
| 1778166228 | 10° C | 70% | 1011.8 hPa | 0 mm | - | - | - |
| 1778165157 | 10° C | 71% | 1011.9 hPa | 0 mm | - | - | - |
| 1778164436 | 9.44° C | 72% | 1012 hPa | 0 mm | - | - | - |
| 1778163716 | 9.44° C | 73% | 1012.1 hPa | 0 mm | - | - | - |
| 1778162996 | 9.44° C | 74% | 1012 hPa | 0 mm | - | - | - |
| 1778162276 | 8.89° C | 76% | 1012.1 hPa | 0 mm | - | - | - |
| 1778161556 | 8.89° C | 78% | 1012.2 hPa | 0 mm | - | - | - |
| 1778160836 | 8.33° C | 79% | 1012.3 hPa | 0 mm | - | - | - |
| 1778160116 | 7.78° C | 80% | 1012.3 hPa | 0 mm | - | - | - |
| 1778159396 | 7.78° C | 81% | 1012.3 hPa | 0 mm | - | - | - |
| 1778158676 | 7.22° C | 83% | 1012.2 hPa | 0 mm | - | - | - |
| 1778157113 | 5.56° C | 86% | 1012.3 hPa | 0 mm | - | - | - |
| 1778156392 | 5° C | 88% | 1012.3 hPa | 0 mm | - | - | - |
| 1778155672 | 4.44° C | 89% | 1012.3 hPa | 0 mm | - | - | - |
| 1778154233 | 3.89° C | 92% | 1012.3 hPa | 0 mm | - | - | - |
| 1778153513 | 3.33° C | 92% | 1012.2 hPa | 0 mm | - | - | - |
| 1778152792 | 3.33° C | 92% | 1012.1 hPa | 0 mm | - | - | - |
| 1778152073 | 2.78° C | 91% | 1011.9 hPa | 0 mm | - | - | - |
| 1778151352 | 2.78° C | 91% | 1011.9 hPa | 0 mm | - | - | - |
| 1778150633 | 2.78° C | 91% | 1012 hPa | 0 mm | - | - | - |
| 1778149913 | 2.78° C | 90% | 1012 hPa | 0 mm | - | - | - |
| 1778149192 | 3.33° C | 90% | 1011.9 hPa | 0 mm | - | - | - |
* Rain latest hour (hover to see other rain measurements)
** Current wind speed in m/s (hover to see current wind gust speed)